Regional Weather Roundup
Issued by NWS Sterling, VA

Home | Current Version | Previous Version | Graphics & Text | Print | Product List | Glossary On
Versions: 1 2 3 4 5 6 7 8 9 10 11 12 13 14 15 16 17 18 19 20 21 22 23 24 25 26 27
000
ASUS41 KLWX 252011
RWRLWX

REGIONAL WEATHER ROUNDUP
NATIONAL WEATHER SERVICE BALTIMORE MD/WASHINGTON DC
400 PM EDT FRI MAY 25 2018

Note: "FAIR" indicates few or no clouds below 12,000 feet
with no significant weather and/or obstructions to visibility.
 TC=TEMPERATURE CELSIUS

 * =Non NWS site. Station does not report precipitation (e.g. rain,
    snow, etc.), thunder, or fog.

DCZ001-MDZ009-015-VAZ040>042-051-053>054-252100-
WASHINGTON METRO

CITY           SKY/WX    TMP DP  RH WIND       PRES   REMARKS
WASHINGTON NAT PTSUNNY   84  66  54 S13       29.94F
DULLES         FAIR      85  66  53 S9        29.94F
ANDREWS AFB    FAIR      85  64  48 SW15      29.95F
FT BELVOIR     FAIR      85  66  53 S8        29.94F
QUANTICO       FAIR      83  69  62 SW9       29.95F
COLLEGE PARK*  FAIR      86  62  45 S9        29.93F
LEESBURG*      FAIR      90  64  43 SW8       29.94F HX  91
MANASSAS*      FAIR      86  69  56 S7        29.95F HX  90
GAITHERSBURG*  FAIR      88  62  41 S7G16     29.96F

$$

MDZ006>007-011-014-252100-
BALTIMORE METRO

CITY           SKY/WX    TMP DP  RH WIND       PRES   REMARKS
BWI AIRPORT    PTSUNNY   87  60  40 SW8G17    29.93F
MD SCIENCE CTR   N/A     92  59  33 MISG      29.93F HX  91
MARTIN STATE   MOSUNNY   84  68  58 SE15      29.95F
ANNAPOLIS      FAIR      85  69  58 S10       29.94F
FORT MEADE*    FAIR      84  61  45 SW10      29.96F

$$

MDZ012-015-019>023-252100-
MARYLAND EASTERN SHORE

CITY           SKY/WX    TMP DP  RH WIND       PRES   REMARKS
OCEAN CITY     FAIR      78  64  61 S12G20    30.00F
SALISBURY      FAIR      83  58  42 S14G22    29.98F
BAY BRIDGE AP* FAIR      86  68  54 S14       29.95F
CAMBRIDGE*     SUNNY     82  63  51 S10G17    29.97F
EASTON*        MOSUNNY   84  66  54 S12G18    30.00F

$$

MDZ017>025-252100-
SOUTHERN MARYLAND

CITY           SKY/WX    TMP DP  RH WIND       PRES   REMARKS
PATUXENT RIVER FAIR      86  65  49 S12       29.97F
ST INIGOES     FAIR      83  66  56 S9        29.97F
LEONARDTOWN*   FAIR      82  64  54 SW8       29.99F

$$

MDZ003>005-252100-
NORTH CENTRAL MARYLAND

CITY           SKY/WX    TMP DP  RH WIND       PRES   REMARKS
FREDERICK*     SUNNY     90  55  31 SW13      29.96F
HAGERSTOWN APT FAIR      87  58  37 S13G22    29.92F
WESTMINSTER*   FAIR      88  57  35 SW10      29.95F

$$

MDZ501>502-252100-
WESTERN MARYLAND

CITY           SKY/WX    TMP DP  RH WIND       PRES   REMARKS
OAKLAND*       FAIR      75  54  46 W9G18     30.04F
CUMBERLAND*    FAIR      90  61  37 S9        29.94F

$$

VAZ025>031-252100-
SHENANDOAH VALLEY

CITY           SKY/WX    TMP DP  RH WIND       PRES   REMARKS
WINCHESTER*    FAIR      84  63  48 SE10      29.95F
FRONT ROYAL*   FAIR      86  68  54 S5        29.93F
LURAY*         FAIR      86  63  45 S12G17    29.95F
NEW MARKET*    FAIR      84  64  50 S12G17    29.93F
STAUNTON*      FAIR      82  66  59 S10       30.00F
WAYNESBORO*    PTSUNNY   81  67  62 S9        30.01F

$$

WVZ021-048>050-054>055-252100-
EASTERN WEST VIRGINIA PANHANDLE

CITY           SKY/WX    TMP DP  RH WIND       PRES   REMARKS
MARTINSBURG    FAIR      86  62  44 VRB6      29.91F
PETERSBURG*    FAIR      84  64  50 S8        29.92F

$$

VAZ036>039-050-252100-
CENTRAL FOOTHILLS

CITY           SKY/WX    TMP DP  RH WIND       PRES   REMARKS
CHARLOTTESVILL FAIR      86  66  51 SW12      29.97F
CULPEPER*      FAIR      85  65  49 S9        29.96F
ORANGE*        PTSUNNY   82  66  57 S12G18    29.96F
GORDONSVILLE*  FAIR      84  68  58 SW9G18    29.96F
WARRENTON*     FAIR      85  64  50 SW9       29.95F

$$

VAZ055>057-252100-
NORTH AND CENTRAL PIEDMONT

CITY           SKY/WX    TMP DP  RH WIND       PRES   REMARKS
FREDERICKSBRG* PTSUNNY   86  67  53 S12       29.96F
STAFFORD*      FAIR      85  67  56 S8G16     29.99F

$$

NCZ024-NYZ072-PAZ021-071-VAZ022-071-252100-
OTHER REGIONAL OBSERVATIONS

CITY           SKY/WX    TMP DP  RH WIND       PRES   REMARKS
NEW YORK CITY  FAIR      85  51  31 MISG      29.90F
PHILADELPHIA   PTSUNNY   85  57  38 SW18      29.92F
PITTSBURGH     FAIR      85  56  37 W8        29.94F
ROANOKE        PTSUNNY   84  65  52 S13       30.02F
RICHMOND       PTSUNNY   84  63  49 S14       29.99F
RALEIGH        PTSUNNY   84  67  56 SW7       30.03F

$$

ANZ530>537-252100-
MARINE OBSERVATIONS

STATION/POSITION TIME  TEMP    WIND        PRES
                       AIR SEA DIR/SP/G
                 (UTC) (F)     (DEG/KT/KT) (MB)
THOMAS PT LIGHT  2000   75 70  170/ 18/ 20 1014.7F
BALT KEY BRIDGE  1948   84     220/  9/ 12 1013.4F
COVE POINT       1948   74     190/ 14/ 18 1015.4F
LEWISETTA        1948   82 73  220/ 12/ 16 1015.1F
SOLOMONS ISLAND  1948   80 71  210/ 13/ 16 1014.5F
PINEY POINT      1948          230/ 11/ 14   N/A

$$





USA.gov is the U.S. government's official web portal to all federal, state and local government web resources and services.